Flag for U.S.A. Weather past 2 weeks in Charlottesville, Virginia, U.S.A.

Now
53 °F

Clear.


Feels Like: 51 °F
Forecast: 46 / 64 °F
Wind: 7 mph from Northwest

Location: Charlottesville-Albemarle Airport

Current Time: Oct 23, 2014 at 12:42:26 AM

Latest Report: Oct 22, 2014 at 11:53 PM


Visibility: 10 mi

Pressure: 29.98 "Hg

Humidity: 59%

Dew point: 39 °F

Location of CharlottesvilleLocation

Historic Weather in Charlottesville — Graph

°F

Charlottesville temperature yesterday

Maximum temperature yesterday: 60 °F (at 11:53 AM)
Minimum temperature yesterday: 51 °F (at 5:53 AM)
Average temperature yesterday: 55 °F

Past Weeks' High & Low Weather Summary

 TemperatureHumidityPressure
High77 °F (Oct 8, 2:53 PM)100% (Oct 16, 12:00 AM)30.28 "Hg (Oct 16, 12:00 AM)
Low37 °F (Oct 20, 5:53 AM)26% (Oct 8, 4:53 PM)29.65 "Hg (Oct 18, 4:53 AM)
Average59 °F76%29.97 "Hg
* Reported Oct 7 10:53 PM — Oct 22 10:53 PM, Charlottesville, Weather by CustomWeather, © 2014

Note: Actual official high and low records may vary slightly from our data, if they occured in-between our weather recording intervals... More about our weather records

Advertising

Charlottesville weather history for previous 24 hours

 ConditionsComfort  
Time TempWeatherWind HumidityBarometerVisibility
10:53 PM
Oct 22
52 °FClear.6 mph64%30.00 "Hg10 mi
9:53 PM53 °FClear.9 mph61%29.99 "Hg10 mi
8:53 PM54 °FClear.13 mph62%29.98 "Hg10 mi
7:53 PM54 °FClear.10 mph64%29.98 "Hg10 mi
6:53 PM55 °FPartly sunny.14 mph64%29.98 "Hg10 mi
5:53 PM55 °FMore clouds than sun.10 mph64%29.98 "Hg10 mi
4:53 PM56 °FMostly cloudy.14 mph65%29.98 "Hg10 mi
3:53 PM56 °FLight rain. More clouds than sun.9 mph65%29.98 "Hg10 mi
2:53 PM57 °FOvercast.16 mph62%29.97 "Hg10 mi
1:53 PM59 °FOvercast.14 mph58%29.97 "Hg10 mi
12:53 PM60 °FOvercast.15 mph56%29.98 "Hg10 mi
11:53 AM60 °FBroken clouds.17 mph56%29.97 "Hg10 mi
10:53 AM57 °FScattered clouds.9 mph64%29.98 "Hg10 mi
9:53 AM55 °FBroken clouds.12 mph69%29.97 "Hg10 mi
8:53 AM54 °FBroken clouds.12 mph72%29.95 "Hg10 mi
7:53 AM53 °FMostly cloudy.13 mph72%29.94 "Hg10 mi
6:53 AM51 °FMostly cloudy.8 mph80%29.93 "Hg10 mi
5:53 AM51 °FHeavy rain. Overcast.9 mph80%29.91 "Hg4 mi
4:53 AM53 °FLight rain. Overcast.6 mph72%29.90 "Hg10 mi
3:53 AM52 °FOvercast.7 mph77%29.88 "Hg10 mi
2:53 AM53 °FOvercast.5 mph72%29.89 "Hg10 mi
1:53 AM53 °FMostly cloudy.8 mph72%29.89 "Hg10 mi
12:53 AM54 °FOvercast.5 mph69%29.90 "Hg10 mi
Weather by CustomWeather, © 2014

See weather overviewHow to use our weather pages